Weather History for MRLB - January, 2014

Change the Weather History Date:

Wednesday, January 15, 2014

  Actual Average Record
Temperature  
Mean Temperature 78 °F -  
Max Temperature 91 °F 89 °F - ()
Min Temperature 65 °F 74 °F - ()
Cooling Degree Days 13    
Growing Degree Days 28 (Base 50)    
Moisture  
Dew Point 64 °F    
Average Humidity 53    
Maximum Humidity 94    
Minimum Humidity 28    
Precipitation  
Precipitation 0.00 in - - ()
Sea Level Pressure  
Sea Level Pressure 29.82 in    
Wind  
Wind Speed 7 mph ()    
Max Wind Speed 17 mph    
Max Gust Speed -    
Visibility 12.0 miles    
Events      
T = Trace of Precipitation, MM = Missing Value Source: Averaged Metar Reports

Daily Weather History Graph

Daily Weather History Graph

Search for Another Location

Airport or City:

Trip Planner

Search our weather history database for the weather conditions in past years. The results will help you decide how hot, cold, wet, or windy it might be!

Date:

Astronomy

Jan. 15, 2014 Rise Set
Actual Time 6:04 AM CST 5:38 PM CST
Civil Twilight 5:41 AM CST 6:01 PM CST
Nautical Twilight 5:15 AM CST 6:27 PM CST
Astronomical Twilight 4:50 AM CST 6:53 PM CST
Moon 5:25 PM CST (1/15) 5:28 AM CST (1/15)
Length of Visible Light 12h 19m
Length of Day
11h 34m
Full, 100% of the Moon is Illuminated
Jan 15
Full
Jan 15
Full
Jan 23
Last Quarter
Jan 30
New
Feb 6
First Quarter

Hourly Weather History & Observations

Time (CST) Temp. Heat Index Dew Point Humidity Pressure Visibility Wind Dir Wind Speed Gust Speed Precip Events Conditions
6:00 AM 67 °F - 64 °F 86% 29.88 in 12 mi East 4.6 mph - -  
6:00 AM 66.2 °F - 64.4 °F 94% 29.84 in - East 4.6 mph - N/A   Clear
7:00 AM 69.8 °F - 64.4 °F 83% 29.86 in - Calm Calm - N/A   Clear
8:00 AM 77.0 °F - 64.4 °F 65% 29.88 in - SW 3.5 mph - N/A   Clear
9:00 AM 81 °F - 65 °F 48% 29.93 in 12 mi WSW 5.8 mph - -  
9:00 AM 80.6 °F 82.3 °F 64.4 °F 58% 29.89 in - WSW 5.8 mph - N/A   Clear
10:00 AM 86.0 °F 86.6 °F 62.6 °F 45% 29.88 in - WSW 2.3 mph - N/A   Clear
11:00 AM 89.6 °F 90.1 °F 62.6 °F 40% 29.85 in - East 15.0 mph - N/A   Clear
12:00 PM 91 °F - 62 °F 28% 29.84 in 12 mi East 11.5 mph - -  
12:00 PM 91.4 °F 92.1 °F 62.6 °F 38% 29.82 in - East 11.5 mph - N/A   Clear
1:00 PM 91.4 °F 92.1 °F 62.6 °F 38% 29.79 in - East 15.0 mph - N/A   Clear
2:00 PM 93.2 °F 94.1 °F 62.6 °F 36% 29.76 in - ENE 16.1 mph - N/A   Clear
3:00 PM 91.4 °F 92.1 °F 62.6 °F 38% 29.75 in - ENE 17.3 mph - N/A   Clear
4:00 PM 91.4 °F 92.1 °F 62.6 °F 38% 29.75 in - East 17.3 mph - N/A   Clear
5:00 PM 87.8 °F 89.4 °F 64.4 °F 46% 29.75 in - East 12.7 mph - N/A   Clear
6:00 PM 81 °F - 63 °F 45% 29.80 in 12 mi East 15.0 mph - -  
6:00 PM 84.2 °F 86.6 °F 66.2 °F 55% 29.77 in - East 13.8 mph - N/A   Clear
7:00 PM 82.4 °F 84.6 °F 66.2 °F 58% 29.80 in - East 15.0 mph - N/A   Clear
8:00 PM 82.4 °F 85.4 °F 68.0 °F 62% 29.81 in - ESE 10.4 mph - N/A   Clear